Regional Weather Roundup
Issued by NWS Lake Charles, LA

Home | Current Version | Previous Version | Text Only | Print | Product List | Glossary On
Versions: 1 2 3 4 5 6 7 8 9 10 11 12 13 14 15 16 17 18 19 20 21 22 23 24 25 26 27 28 29 30 31 32 33 34 35 36 37 38 39 40 41 42 43 44 45 46 47 48 49 50
000
ASUS44 KLCH 190310
RWRLCH
RWRLCH
REGIONAL WEATHER ROUNDUP
NATIONAL WEATHER SERVICE LAKE CHARLES LA
1000 PM CDT THU SEP 18 2014

Note: "fair" indicates few or no clouds below 12,000 feet with no
significant weather and/or obstructions to visibility.


ACROSS SOUTHEAST TEXAS

CITY           SKY/WX    TMP DP  RH WIND       PRES   REMARKS
BEAUMONT       LGT RAIN  75  73  93 CALM      29.87R
BEAUMONT CITY    N/A     73  73  98 CALM      29.89R
ORANGE         MOCLDY   N/A N/A N/A CALM      29.89R
JASPER         CLOUDY    71  70  96 CALM      29.94R
$$

ACROSS CENTRAL LOUISIANA

CITY           SKY/WX    TMP DP  RH WIND       PRES   REMARKS
LEESVILLE      CLOUDY    74  73  97 CALM      29.92R
FULLERTON      CLOUDY    75  72  90 CALM      29.90R
ALEXANDRIA INT CLOUDY    75  74  96 CALM      29.91R
ESLER FIELD    CLOUDY    76  74  93 CALM      29.93R
DERIDDER       MOCLDY    74  73  95 CALM      29.94R FOG
OAKDALE        FOG       74  73  96 CALM      29.91S VSB 1/2
OPELOUSAS      CLOUDY    71  70  96 E3        29.92S
$$

ACROSS SOUTHWEST AND SOUTH CENTRAL LOUISIANA

CITY           SKY/WX    TMP DP  RH WIND       PRES   REMARKS
SULPHUR        CLOUDY    75  74  98 NE6       29.90R
LAKE CHARLES   CLOUDY    75  73  93 NE6       29.89S
CHENNAULT INT  PTCLDY    75  75 100 NE7       29.91R
CAMERON PHI    PTCLDY    79  73  83 SE7G14    29.91S
DEQUINCY       CLOUDY    73  72  98 CALM      29.92R
JENNINGS       MOCLDY    75  75  99 CALM      29.92R
LAFAYETTE      CLOUDY    74  73  97 CALM      29.92R
NEW IBERIA     RAIN      75  73  93 S3        29.92S
ABBEVILLE      MOCLDY    75  75  98 CALM      29.91S
PATTERSON      CLOUDY    73  72  94 SE3       29.94S
SALT POINT       N/A     77  74  90 E3        29.90S
$$

SELECTED SITES ACROSS THE REGION

CITY           SKY/WX    TMP DP  RH WIND       PRES   REMARKS
HOUSTON BUSH   CLOUDY    75  73  93 CALM      29.88R
HOUSTON HOBBY  CLOUDY    76  73  91 CALM      29.87R
GALVESTON      MOCLDY    78  74  87 SE9       29.88R
COLLEGE STAT   CLOUDY    75  74  96 E3        29.89R
CONROE         CLOUDY    73  72  96 CALM      29.91R
HUNTSVILLE     CLOUDY    75  72  90 CALM      29.91R
LUFKIN         CLOUDY    74  70  87 E5        29.92R
SHREVEPORT     MOCLDY    76  69  79 W5        29.93R
MONROE         MOCLDY    74  72  93 CALM      29.94R
NATCHEZ MS     CLOUDY    77  73  88 E5        29.94S
BATON ROUGE    LGT RAIN  72  70  93 NE5       29.94R
N.O. INTL ARPT CLOUDY    79  69  71 S7        29.93R
SLIDELL        CLOUDY    75  67  76 E3        29.94R
$$

MARINE REPORTS

STATION/POSITION TIME  TEMP    WIND        PRES    VSBY  WAVE
                       AIR SEA DIR/SP/G                  HT/PER
                 (UTC) (F)     (DEG/KT/KT) (MB)    (MI)  (FT/S)
BUOY 30 S HIGH I 0300   79 83  120/ 10/ 14 1011.0F         1/ 5
SEA RIM ST PARK  0300   78     140/ 10/ 13 1011.9F
PORT ARTHUR      0300      83  160/  5/  7 1011.5R
SABINE PASS N    0300   79 81  170/  9/ 13 1011.5F
TEXAS POINT      0300   79 82  140/ 14/ 16 1011.5F
CALCASIEU PASS   0300   79 82  170/ 10/ 13 1012.8S
LK CHARLES BEACH 0300   76 84              1012.4S
MARSH ISLAND     NOT AVBL
FRESH WATER LOCK 0300   78 84  260/  1/  2 1012.3S
AMERADA PASS     0300   75 83  100/  2/  3 1012.6F
$$



USA.gov is the U.S. government's official web portal to all federal, state and local government web resources and services.